Weather History for Centralia, IL

Change the Weather History Date:

Saturday, June 22, 2013

  Actual Average (KSLO) Record (KSLO)
Temperature  
Mean Temperature 81 °F -  
Max Temperature 91 °F 85 °F 100 °F (1988)
Min Temperature 70 °F 62 °F 42 °F (1992)
Cooling Degree Days 16    
Growing Degree Days 31 (Base 50)    
Moisture  
Dew Point 70 °F    
Average Humidity 75    
Maximum Humidity 91    
Minimum Humidity 51    
Precipitation  
Precipitation 0.43 in - - ()
Sea Level Pressure  
Sea Level Pressure 30.09 in    
Wind  
Wind Speed 8 mph (South)    
Max Wind Speed 28 mph    
Max Gust Speed 33 mph    
Visibility 10 miles    
Events Rain , Thunderstorm    
Averages and records for this station are not official NWS values.
T = Trace of Precipitation, MM = Missing Value Source: NWS Daily Summary

Daily Weather History Graph

Daily Weather History Graph

Search for Another Location

Airport:

Trip Planner

Search our weather history database for the weather conditions in past years. The results will help you decide how hot, cold, wet, or windy it might be!

Date:

Astronomy

Jun. 22, 2013 Rise Set
Actual Time 5:32 AM CDT 8:24 PM CDT
Civil Twilight 5:00 AM CDT 8:55 PM CDT
Nautical Twilight 4:20 AM CDT 9:36 PM CDT
Astronomical Twilight 3:35 AM CDT 10:21 PM CDT
Moon 7:39 PM CDT (6/22) 4:44 AM CDT (6/22)
Length of Visible Light 15h 55m
Length of Day
14h 51m
Waxing Gibbous, 99% of the Moon is Illuminated
Jun 22
Waxing Gibbous
Jun 23
Full
Jun 29
Last Quarter
Jul 8
New
Jul 15
First Quarter

Hourly Weather History & Observations

Time (CDT) Temp. Heat Index Dew Point Humidity Pressure Visibility Wind Dir Wind Speed Gust Speed Precip Events Conditions
12:15 AM 79.2 °F - 70.0 °F 73% 30.09 in 10.0 mi South 5.8 mph - N/A   Clear
12:35 AM 78.6 °F - 70.2 °F 75% 30.09 in 10.0 mi SSE 5.8 mph - N/A   Clear
12:55 AM 79.2 °F - 70.3 °F 74% 30.09 in 10.0 mi SSE 5.8 mph - N/A   Clear
1:15 AM 78.3 °F - 70.2 °F 76% 30.08 in 10.0 mi South 6.9 mph - N/A   Clear
1:35 AM 78.3 °F - 70.2 °F 76% 30.08 in 10.0 mi South 6.9 mph - N/A   Clear
1:55 AM 78.8 °F - 70.2 °F 75% 30.08 in 10.0 mi South 9.2 mph - N/A   Clear
2:15 AM 78.8 °F - 70.0 °F 74% 30.08 in 10.0 mi SSE 6.9 mph - N/A   Clear
2:35 AM 77.9 °F - 70.0 °F 76% 30.08 in 10.0 mi SSE 6.9 mph - N/A   Clear
2:55 AM 77.9 °F - 70.0 °F 76% 30.08 in 10.0 mi SSE 6.9 mph - N/A   Clear
3:15 AM 77.2 °F - 70.0 °F 78% 30.07 in 10.0 mi South 9.2 mph - N/A   Clear
3:35 AM 77.0 °F - 69.8 °F 78% 30.07 in 10.0 mi SSE 9.2 mph - N/A   Clear
3:55 AM 76.6 °F - 69.8 °F 79% 30.06 in 10.0 mi South 9.2 mph - N/A   Clear
4:15 AM 77.0 °F - 69.8 °F 78% 30.07 in 10.0 mi SSE 8.1 mph - N/A   Clear
4:35 AM 77.0 °F - 69.8 °F 78% 30.08 in 10.0 mi SSE 9.2 mph - N/A   Clear
4:55 AM 76.3 °F - 69.8 °F 80% 30.09 in 10.0 mi South 6.9 mph - N/A   Clear
5:15 AM 76.3 °F - 69.8 °F 80% 30.09 in 10.0 mi South 8.1 mph - N/A   Clear
5:35 AM 77.4 °F - 69.8 °F 77% 30.10 in 10.0 mi South 8.1 mph - N/A   Clear
5:55 AM 77.0 °F - 70.0 °F 79% 30.10 in 10.0 mi South 6.9 mph - N/A   Clear
6:15 AM 77.2 °F - 70.2 °F 79% 30.10 in 10.0 mi South 8.1 mph - N/A   Clear
6:35 AM 77.4 °F - 70.2 °F 78% 30.10 in 10.0 mi South 8.1 mph - N/A   Clear
6:55 AM 77.9 °F - 70.7 °F 78% 30.10 in 10.0 mi South 9.2 mph - N/A   Clear
7:15 AM 79.2 °F - 70.9 °F 76% 30.11 in 10.0 mi South 8.1 mph - N/A   Clear
7:35 AM 79.2 °F - 70.9 °F 76% 30.11 in 10.0 mi South 9.2 mph - N/A   Clear
7:55 AM 79.7 °F - 70.9 °F 74% 30.12 in 10.0 mi SSW 11.5 mph - N/A   Clear
8:15 AM 80.6 °F 84.2 °F 70.9 °F 72% 30.13 in 10.0 mi SSW 8.1 mph - N/A   Clear
8:35 AM 80.6 °F 84.4 °F 71.2 °F 73% 30.13 in 10.0 mi South 8.1 mph - N/A   Clear
8:55 AM 80.8 °F 84.7 °F 71.6 °F 73% 30.13 in 10.0 mi South 6.9 mph - N/A   Clear
9:15 AM 81.3 °F 85.8 °F 71.8 °F 73% 30.13 in 10.0 mi South 8.1 mph - N/A   Clear
9:35 AM 82.4 °F 87.2 °F 71.8 °F 70% 30.12 in 10.0 mi South 9.2 mph - N/A   Clear
9:55 AM 85.3 °F 92.2 °F 73.0 °F 67% 30.12 in 10.0 mi South 10.4 mph - N/A   Clear
10:15 AM 86.0 °F 93.0 °F 72.9 °F 65% 30.12 in 10.0 mi South 9.2 mph - N/A   Clear
10:35 AM 87.3 °F 94.5 °F 73.0 °F 62% 30.12 in 10.0 mi South 12.7 mph - N/A   Clear
10:55 AM 87.4 °F 94.8 °F 72.9 °F 62% 30.12 in 10.0 mi South 11.5 mph - N/A   Clear
11:15 AM 88.7 °F 97.2 °F 73.6 °F 61% 30.12 in 10.0 mi South 10.4 mph - N/A   Clear
11:35 AM 89.6 °F 98.7 °F 74.1 °F 60% 30.12 in 10.0 mi SSW 11.5 mph 17.3 mph N/A   Clear
11:55 AM 89.8 °F 98.6 °F 73.9 °F 59% 30.12 in 10.0 mi South 13.8 mph - N/A   Clear
12:15 PM 90.0 °F 98.5 °F 73.4 °F 58% 30.11 in 10.0 mi South 13.8 mph 17.3 mph N/A   Clear
12:35 PM 90.9 °F 100.0 °F 73.6 °F 57% 30.10 in 10.0 mi South 15.0 mph - N/A   Clear
12:55 PM 90.7 °F 97.9 °F 72.1 °F 54% 30.10 in 10.0 mi South 13.8 mph 18.4 mph N/A   Clear
1:15 PM 91.6 °F 98.8 °F 71.8 °F 52% 30.09 in 10.0 mi SSW 16.1 mph 20.7 mph N/A   Clear
1:35 PM 91.0 °F 97.6 °F 71.2 °F 52% 30.08 in 10.0 mi SSW 13.8 mph - N/A   Clear
1:55 PM 91.4 °F 98.4 °F 71.8 °F 52% 30.06 in 10.0 mi South 11.5 mph 23.0 mph N/A   Scattered Clouds
2:15 PM 91.2 °F 98.0 °F 71.4 °F 52% 30.06 in 10.0 mi South 17.3 mph 25.3 mph N/A   Scattered Clouds
2:35 PM 89.8 °F 96.0 °F 71.2 °F 54% 30.07 in 10.0 mi SSE 15.0 mph 19.6 mph N/A   Clear
2:55 PM 91.8 °F 98.6 °F 71.1 °F 51% 30.08 in 10.0 mi South 12.7 mph 18.4 mph N/A   Clear
3:15 PM 91.8 °F 98.6 °F 71.4 °F 51% 30.08 in 10.0 mi SSE 13.8 mph 18.4 mph N/A   Clear
3:35 PM 85.3 °F 87.4 °F 66.0 °F 52% 30.12 in 10.0 mi NW 12.7 mph 29.9 mph N/A   Scattered Clouds
3:55 PM 77.0 °F - 64.4 °F 65% 30.11 in 10.0 mi NNW 27.6 mph 33.4 mph N/A Thunderstorm Mostly Cloudy
4:15 PM 74.5 °F - 67.1 °F 78% 30.10 in 10.0 mi North 16.1 mph 20.7 mph N/A Rain , Thunderstorm Light Thunderstorms and Rain
4:35 PM 72.7 °F - 67.6 °F 84% 30.12 in 5.0 mi East 11.5 mph - 0.17 in Rain , Thunderstorm Light Thunderstorms and Rain
4:55 PM 72.5 °F - 68.0 °F 86% 30.13 in 10.0 mi WNW 6.9 mph - 0.18 in Thunderstorm Mostly Cloudy
5:15 PM 74.3 °F - 67.5 °F 79% 30.12 in 10.0 mi NNW 8.1 mph - N/A Rain , Thunderstorm Light Thunderstorms and Rain
5:35 PM 73.4 °F - 68.0 °F 83% 30.13 in 10.0 mi South 3.5 mph - N/A Rain , Thunderstorm Light Thunderstorms and Rain
5:55 PM 73.4 °F - 69.4 °F 87% 30.14 in 10.0 mi Calm Calm - 0.01 in Rain , Thunderstorm Rain
6:15 PM 73.2 °F - 70.0 °F 90% 30.15 in 7.0 mi ENE 10.4 mph - 0.02 in Rain , Thunderstorm Thunderstorms and Rain
6:35 PM 72.1 °F - 68.9 °F 89% 30.14 in 5.0 mi East 8.1 mph - 0.07 in Rain , Thunderstorm Rain
6:55 PM 72.3 °F - 69.6 °F 91% 30.12 in 5.0 mi East 6.9 mph - 0.13 in Rain Rain
7:15 PM 72.0 °F - 69.1 °F 91% 30.10 in 4.0 mi East 8.1 mph - 0.07 in Rain Rain
7:35 PM 71.8 °F - 68.9 °F 91% 30.08 in 10.0 mi ESE 11.5 mph - 0.10 in Rain Light Rain
7:55 PM 72.1 °F - 68.0 °F 87% 30.04 in 10.0 mi ESE 11.5 mph - 0.11 in Rain Light Rain
8:15 PM 72.5 °F - 67.8 °F 85% 30.03 in 10.0 mi ESE 4.6 mph - N/A   Light Drizzle
8:35 PM 72.5 °F - 68.0 °F 86% 30.02 in 10.0 mi SSE 8.1 mph - N/A Rain Light Rain
8:55 PM 72.0 °F - 68.2 °F 88% 30.04 in 10.0 mi SSE 8.1 mph - N/A   Clear
9:15 PM 71.6 °F - 68.4 °F 89% 30.05 in 10.0 mi South 5.8 mph - N/A   Scattered Clouds
9:35 PM 71.6 °F - 68.4 °F 89% 30.05 in 10.0 mi SW 5.8 mph - N/A   Clear
9:55 PM 71.6 °F - 68.4 °F 89% 30.05 in 10.0 mi SSW 6.9 mph - N/A   Clear
10:15 PM 71.6 °F - 68.5 °F 90% 30.04 in 10.0 mi South 6.9 mph - N/A   Clear
10:35 PM 71.6 °F - 68.5 °F 90% 30.03 in 10.0 mi South 8.1 mph - N/A   Clear
10:55 PM 71.6 °F - 68.4 °F 89% 30.03 in 10.0 mi SSE 8.1 mph - N/A   Clear
11:15 PM 71.6 °F - 68.4 °F 89% 30.04 in 10.0 mi Calm Calm - N/A   Clear
11:35 PM 71.6 °F - 68.2 °F 89% 30.05 in 10.0 mi Calm Calm - N/A   Clear
11:55 PM 70.7 °F - 67.6 °F 90% 30.05 in 10.0 mi Calm Calm - N/A   Clear